RH
30 29 28 26 24 22 22 23 24 24 24 23 22 22 22 23 25 27 27 28 28 27 28 29 28 29 32 36 37 38 38 38 37 38 40 40 40 41 39 34 35 38
30 29 28 27 24 22 22 22 24 24 24 23 22 22 22 23 24 24 24 25 27 27 27 27 28 28 29 32 36 37 37 38 38 38 39 39 38 39 39 36 33 33
29 29 27 26 24 22 21 22 23 25 23 23 22 22 23 23 23 22 21 22 23 25 26 26 27 27 26 27 32 35 35 36 37 37 38 39 39 38 39 39 36 34
28 27 26 25 23 22 21 22 23 24 24 23 22 22 22 23 22 20 20 19 20 22 24 25 25 26 26 26 26 30 33 34 35 37 37 38 39 39 39 39 38 37
27 26 26 25 24 23 22 22 22 24 23 23 23 23 23 23 21 20 18 17 18 19 21 23 24 25 25 25 24 25 28 31 33 35 36 37 38 38 39 39 38 38
26 25 25 25 24 24 22 20 21 22 22 22 23 23 23 23 21 19 18 17 17 17 18 19 21 23 24 24 24 23 24 27 29 32 34 35 36 37 38 39 38 38
26 25 25 24 24 24 23 21 21 21 21 22 22 23 23 23 21 18 17 17 17 16 16 17 18 20 22 23 23 23 23 23 25 28 30 31 33 35 37 38 38 38
25 24 24 24 24 24 24 23 22 21 20 21 21 21 21 21 20 18 17 17 17 17 16 16 16 17 19 20 20 21 22 23 23 24 25 27 30 32 35 37 38 37
25 24 24 23 24 24 24 23 22 20 20 20 19 19 19 19 18 17 16 17 17 17 16 16 15 15 16 17 18 19 19 20 21 22 23 23 26 28 31 34 36 36
24 24 24 23 23 23 23 22 22 21 20 19 18 18 18 18 17 17 16 17 17 17 16 15 14 14 15 16 18 19 18 18 18 19 20 22 23 25 27 30 33 34
24 23 23 22 22 22 22 22 22 21 20 19 18 18 17 16 16 16 16 16 16 16 16 15 14 15 15 16 17 19 19 19 18 17 18 19 21 23 24 26 29 31
23 22 22 21 22 22 22 22 21 21 19 18 17 17 16 16 15 15 15 15 16 16 16 16 16 17 17 17 18 19 19 19 19 18 17 17 19 21 23 25 27 28
21 21 21 21 21 21 21 21 21 21 19 18 17 16 16 15 15 14 14 15 16 17 18 18 18 19 18 19 19 20 19 19 19 18 17 18 18 20 22 24 26 26
20 20 20 20 20 21 21 21 21 21 19 18 17 16 15 15 14 14 14 15 16 18 18 20 20 19 19 19 19 19 19 19 19 18 17 17 18 18 20 23 24 24
20 20 20 20 21 21 20 21 20 20 19 18 16 15 14 14 15 16 16 16 17 18 19 20 20 19 18 18 18 18 18 18 19 18 18 17 17 17 19 20 21 21
21 21 21 21 21 21 20 20 20 20 19 17 15 14 14 14 15 17 17 17 17 19 19 19 19 18 18 17 17 17 17 18 18 18 18 18 17 17 18 17 18 19
21 21 21 21 21 20 20 20 21 20 19 18 16 15 14 15 17 19 20 19 19 19 19 19 18 18 17 17 17 17 17 18 18 19 19 19 19 18 18 18 19 20
22 22 21 22 21 21 21 22 22 22 21 20 19 18 17 17 20 21 21 21 21 21 20 20 19 18 17 17 17 16 17 18 19 19 20 20 20 21 21 22 23 24
25 24 23 22 22 23 23 24 24 24 24 23 23 22 21 22 23 24 24 23 23 22 21 21 20 19 18 17 17 16 17 18 19 20 21 22 23 24 25 26 27 29
29 28 26 25 24 24 25 26 26 26 27 27 28 27 26 25 26 27 26 25 24 23 22 22 21 19 19 18 18 17 18 19 21 22 24 26 26 27 28 29 31 33
34 33 32 31 29 28 27 27 27 28 28 29 29 29 28 28 28 29 29 27 25 24 25 25 23 21 20 20 19 20 22 24 25 26 28 29 30 31 32 34 38 41
42 42 41 41 40 38 36 33 32 32 31 31 30 31 31 32 32 32 32 30 26 26 27 27 23 23 23 23 24 26 28 30 30 31 32 34 36 38 41 43 45 47
43 45 47 48 48 48 47 44 42 40 39 38 36 36 36 36 36 36 35 33 30 28 29 28 26 27 29 30 32 35 36 37 38 38 40 41 43 44 46 47 48 49
42 43 45 46 48 48 49 48 47 45 45 44 43 42 41 40 40 38 38 37 33 30 31 32 31 33 35 35 38 41 41 42 43 44 45 45 45 47 48 49 50 51
41 42 43 44 45 45 46 47 46 45 45 46 46 46 46 44 42 41 42 41 37 35 36 37 36 37 38 38 39 41 42 43 45 46 46 46 47 48 49 50 51 52
40 42 43 44 44 43 43 45 45 45 45 45 45 47 49 48 46 45 46 46 42 41 42 40 38 37 37 38 40 41 42 44 46 46 47 47 48 48 49 50 52 53